Weather History for PAEI - October, 2013

Change the Weather History Date:

Friday, October 25, 2013

  Actual Average Record
Temperature  
Mean Temperature 30 °F -  
Max Temperature 42 °F 22 °F 50 °F (2002)
Min Temperature 18 °F 9 °F -25 °F (1996)
Degree Days  
Heating Degree Days 35    
Moisture  
Dew Point 22 °F    
Average Humidity 74    
Maximum Humidity 87    
Minimum Humidity 52    
Precipitation  
Precipitation 0.00 in - - ()
Sea Level Pressure  
Sea Level Pressure 29.91 in    
Wind  
Wind Speed 3 mph (South)    
Max Wind Speed 8 mph    
Max Gust Speed -    
Visibility 10 miles    
Events      
Averages and records for this station are not official NWS values.
T = Trace of Precipitation, MM = Missing Value Source: NWS Daily Summary

Daily Weather History Graph

Daily Weather History Graph

Search for Another Location

Airport or City:

Trip Planner

Search our weather history database for the weather conditions in past years. The results will help you decide how hot, cold, wet, or windy it might be!

Date:

Astronomy

Oct. 25, 2013 Rise Set
Actual Time 9:13 AM AKDT 5:50 PM AKDT
Civil Twilight 8:21 AM AKDT 6:42 PM AKDT
Nautical Twilight 7:23 AM AKDT 7:39 PM AKDT
Astronomical Twilight 6:27 AM AKDT 8:35 PM AKDT
Moon 10:46 PM AKDT (10/25) 3:37 PM AKDT (10/25)
Length of Visible Light 10h 21m
Length of Day
8h 36m
Waning Gibbous, 61% of the Moon is Illuminated
Oct 25
Waning Gibbous
Oct 26
Last Quarter
Nov 3
New
Nov 9
First Quarter
Nov 17
Full

Hourly Weather History & Observations

Time (AKDT) Temp. Windchill Dew Point Humidity Pressure Visibility Wind Dir Wind Speed Gust Speed Precip Events Conditions
12:58 AM 28.8 °F 22.6 °F 21.2 °F 73% 29.73 in 10.0 mi Variable 5.8 mph - N/A   Mostly Cloudy
1:58 AM 28.9 °F - 21.7 °F 74% 29.73 in 10.0 mi Variable 2.3 mph - N/A   Partly Cloudy
2:58 AM 29.1 °F 25.4 °F 22.8 °F 77% 29.72 in 10.0 mi Variable 3.5 mph - N/A   Overcast
3:58 AM 29.8 °F - 24.1 °F 79% 29.74 in 10.0 mi Calm Calm - N/A   Overcast
4:58 AM 30.7 °F 26.0 °F 24.4 °F 77% 29.75 in 10.0 mi North 4.6 mph - N/A   Scattered Clouds
5:58 AM 30.6 °F 24.7 °F 23.4 °F 75% 29.75 in 10.0 mi East 5.8 mph - N/A   Overcast
6:58 AM 31.6 °F 28.3 °F 23.0 °F 70% 29.78 in 10.0 mi Variable 3.5 mph - N/A   Clear
7:58 AM 26.4 °F - 21.4 °F 81% 29.80 in 10.0 mi Calm Calm - N/A   Scattered Clouds
8:58 AM 26.6 °F - 22.1 °F 83% 29.81 in 10.0 mi Calm Calm - N/A   Overcast
9:58 AM 29.3 °F 24.3 °F 22.6 °F 76% 29.83 in 10.0 mi North 4.6 mph - N/A   Overcast
10:58 AM 26.4 °F 20.9 °F 21.7 °F 82% 29.87 in 10.0 mi West 4.6 mph - N/A   Clear
11:58 AM 32.2 °F - 21.9 °F 66% 29.89 in 10.0 mi Calm Calm - N/A   Clear
12:58 PM 36.1 °F - 23.7 °F 61% 29.90 in 10.0 mi Calm Calm - N/A   Clear
1:58 PM 40.5 °F - 24.6 °F 53% 29.92 in 10.0 mi Calm Calm - N/A   Clear
2:58 PM 42.1 °F 38.4 °F 25.3 °F 52% 29.94 in 10.0 mi Variable 5.8 mph - N/A   Clear
3:58 PM 40.1 °F 34.7 °F 26.1 °F 57% 29.95 in 10.0 mi WSW 8.1 mph - N/A   Overcast
4:58 PM 34.2 °F - 23.7 °F 66% 29.98 in 10.0 mi Calm Calm - N/A   Mostly Cloudy
5:58 PM 32.4 °F 27.9 °F 23.2 °F 69% 30.00 in 10.0 mi SW 4.6 mph - N/A   Overcast
6:58 PM 30.2 °F - 22.3 °F 72% 30.03 in 10.0 mi Calm Calm - N/A   Overcast
7:58 PM 26.2 °F - 21.7 °F 83% 30.06 in 10.0 mi Calm Calm - N/A   Clear
8:58 PM 25.0 °F - 20.8 °F 84% 30.09 in 10.0 mi SSE 2.3 mph - N/A   Mostly Cloudy
9:58 PM 19.6 °F 13.0 °F 16.2 °F 87% 30.12 in 10.0 mi South 4.6 mph - N/A   Clear
10:58 PM 18.7 °F 11.9 °F 15.4 °F 87% 30.15 in 10.0 mi SSE 4.6 mph - N/A   Clear
11:58 PM 20.7 °F 14.2 °F 17.4 °F 87% 30.18 in 10.0 mi Variable 4.6 mph - N/A   Clear